Weather Roundup
Issued by NWS

Home | Current Version | Previous Version | Graphics & Text | Print | Product List | Glossary Off
Versions: 1 2 3 4 5 6 7 8 9 10 11 12 13 14 15 16 17 18 19 20 21 22 23 24 25 26 27 28 29 30 31 32 33 34 35 36 37 38 39 40 41 42 43 44 45 46 47 48 49 50

000
NZUS93 KARX 181659
HRRWXR

CURRENT HOURLY OBSERVATIONS ACROSS
MUCH OF THE UPPER MISSISSIPPI VALLEY
NATIONAL WEATHER SERVICE LA CROSSE WI
1200 PM CDT WED OCT 18 2017


...SOUTHEAST MINNESOTA...


CITY           SKY/WX    TMP DP  RH WIND       PRES   REMARKS
ROCHESTER      SUNNY     65  50  58 S18       29.88F
ROCHESTER/MAYO FAIR      65  47  51 S15       29.86F
WINONA         SUNNY     68  48  49 S6        29.88F
AUSTIN         SUNNY     64  48  55 S15G21    29.87F
ALBERT LEA     NOT AVBL
DODGE CENTER   SUNNY     64  46  52 S17G23    29.85F
PRESTON        SUNNY     64  47  53 S17       29.90F
OWATONNA       MOSUNNY   68  50  52 S17       29.83S
FARIBAULT      MOSUNNY   64  48  55 SW10G17   29.88R
$$

...ELSEWHERE IN MINNESOTA...


CITY           SKY/WX    TMP DP  RH WIND       PRES   REMARKS
MINNEAPOLIS    CLOUDY    64  49  57 SW10      29.83F
INTNL FALLS    SUNNY     64  30  27 W22G32    29.61R
DULUTH         CLOUDY    61  45  55 SW18      29.70F
RED WING       SUNNY     66  45  45 S9        29.80F
REDWOOD FALLS  SUNNY     68  40  35 NW13      29.86R
MANKATO        SUNNY     65  48  54 SW13      29.87R
WORTHINGTON    CLOUDY    63  44  50 NW15G22   29.91R
FAIRMONT       SUNNY     64  49  57 W13       29.89R
$$

...SOUTHWEST WISCONSIN...


CITY           SKY/WX    TMP DP  RH WIND       PRES   REMARKS
LA CROSSE      SUNNY     65  48  54 S15       29.90F
PRAIRIE DU CHI SUNNY     65  45  47 S9G16     29.97F
BOSCOBEL       SUNNY     68  47  46 S13G20    29.97F
LONE ROCK      SUNNY     67  50  54 S10       29.98F
PLATTEVILLE    SUNNY     64  48  56 S13       30.03S
FORT MC COY    SUNNY     63  48  58 S13G20    29.93F
MAUSTON-NEW LI SUNNY     64  48  56 S9        29.95S
VIROQUA        FAIR      65  48  55 S12       29.95F
WIS DELLS      SUNNY     62  45  53 S15G21    29.98F
$$

...ELSEWHERE IN WISCONSIN...


CITY           SKY/WX    TMP DP  RH WIND       PRES   REMARKS
MILWAUKEE      SUNNY     68  45  43 S21G26    30.05F
MADISON        SUNNY     65  46  50 S12       30.01F
GREEN BAY      SUNNY     63  49  60 SW15G25   29.96F
EAU CLAIRE     NOT AVBL
BLACK RVR FLS  FAIR      67  44  44 S14       29.90F
MEDFORD        SUNNY     62  47  58 S13G20    29.88S
WAUSAU         SUNNY     63  47  55 S12G22    29.88F
WIS RAPIDS     SUNNY     65  48  54 SW15      29.93F
MARSHFIELD     SUNNY     65  46  50 S17G25    29.89F
RICE LAKE      CLOUDY    64  47  54 S15       29.81F
$$

...NORTHEAST IOWA...


CITY           SKY/WX    TMP DP  RH WIND       PRES   REMARKS
WATERLOO       SUNNY     67  46  47 S17       29.95S
DUBUQUE        SUNNY     65  48  54 S18G24    30.02F
DECORAH        SUNNY     66  48  52 S8G21     29.93F
MASON CITY     SUNNY     65  48  54 S14       29.91F
CHARLES CITY   SUNNY     68  46  45 S13G20    29.93F
OELWEIN        SUNNY     68  48  49 S17       29.97S
$$

...ELSEWHERE IN IOWA...


CITY           SKY/WX    TMP DP  RH WIND       PRES   REMARKS
DES MOINES     PTSUNNY   69  46  43 S14       29.96F
IOWA CITY      SUNNY     68  46  45 S16       30.04F
FORT DODGE     MOSUNNY   66  49  54 S16       29.90F
MARSHALLTOWN   SUNNY     67  47  48 S16       29.96F
CEDAR RAPIDS   SUNNY     67  47  48 S16       30.01F
$$

...NORTHERN ILLINOIS...


CITY           SKY/WX    TMP DP  RH WIND       PRES   REMARKS
CHICAGO-OHARE  SUNNY     66  43  43 SW12      30.12F
CHICAGO-MIDWAY SUNNY     66  43  43 S15G25    30.13F
MOLINE         SUNNY     68  45  43 S16G24    30.06F
ROCKFORD       SUNNY     67  46  47 S16       30.09F
PEORIA         SUNNY     64  46  52 S13       30.13F
$$

NOTE: "FAIR" INDICATES FEW OR NO CLOUDS BELOW 12,000 FEET WITH NO
SIGNIFICANT WEATHER AND/OR OBSTRUCTIONS TO VISIBILITY. WIND
SPEEDS ARE IN MILES-PER-HOUR.




USA.gov is the U.S. government's official web portal to all federal, state and local government web resources and services.